| time (UTC) | temp C | wind direction | speed KPH | gust KPH | rain 1hr cm | rain 24hr cm | rain mn cm | humidity % | barometer mb |
| 20260508151512 | 13 | 200 | 4.8 | 12.9 | 0.00 | 2.06 | 0.00 | 58 | 1001.4 |
| 20260508150009 | 15 | 181 | 8.0 | 16.1 | 0.00 | 2.06 | 0.00 | 58 | 1001.1 |
| 20260508144507 | 15 | 90 | 3.2 | 16.1 | 0.00 | 2.06 | 0.00 | 53 | 1001.3 |
| 20260508143005 | 15 | 95 | 4.8 | 16.1 | 0.00 | 2.06 | 0.00 | 49 | 1001.5 |
| 20260508141502 | 15 | 99 | 11.3 | 19.3 | 0.00 | 2.06 | 0.00 | 57 | 1001.5 |
| 20260508140115 | 14 | 92 | 9.7 | 17.7 | 0.00 | 2.06 | 0.00 | 60 | 1001.6 |
| 20260508134557 | 13 | 96 | 8.0 | 19.3 | 0.00 | 2.06 | 0.00 | 63 | 1001.6 |
| 20260508133053 | 13 | 130 | 3.2 | 14.5 | 0.00 | 2.06 | 0.00 | 65 | 1001.9 |
| 20260508131558 | 13 | 98 | 8.0 | 19.3 | 0.00 | 2.06 | 0.00 | 65 | 1001.8 |
| 20260508130046 | 13 | 85 | 6.4 | 12.9 | 0.00 | 2.06 | 0.00 | 68 | 1001.9 |
| 20260508124541 | 13 | 84 | 4.8 | 12.9 | 0.00 | 2.06 | 0.00 | 71 | 1001.9 |
| 20260508123037 | 12 | 56 | 4.8 | 12.9 | 0.00 | 2.06 | 0.00 | 76 | 1001.8 |
| 20260508121532 | 11 | 91 | 8.0 | 17.7 | 0.00 | 2.06 | 0.00 | 79 | 1001.8 |
| 20260508120036 | 11 | 86 | 8.0 | 16.1 | 0.00 | 2.06 | 0.00 | 85 | 1001.8 |
| 20260508114523 | 10 | 106 | 1.6 | 9.7 | 0.00 | 2.06 | 0.00 | 93 | 1002.3 |
| 20260508113021 | 9 | 78 | 0.0 | 6.4 | 0.00 | 2.06 | 0.00 | 97 | 1002.3 |
| 20260508111519 | 8 | 57 | 0.0 | 0.0 | 0.00 | 2.06 | 0.00 | 97 | 1002.4 |
| 20260508110018 | 7 | 56 | 0.0 | 0.0 | 0.00 | 2.06 | 0.00 | 97 | 1002.3 |
| 20260508104515 | 7 | 68 | 0.0 | 0.0 | 0.00 | 2.06 | 0.00 | 98 | 1002.3 |
| 20260508103026 | 5 | 73 | 0.0 | 0.0 | 0.00 | 2.06 | 0.00 | 97 | 1002.7 |
| 20260508101517 | 5 | 72 | 0.0 | 0.0 | 0.00 | 2.06 | 0.00 | 96 | 1002.6 |
| 20260508100010 | 5 | 70 | 0.0 | 0.0 | 0.00 | 2.06 | 0.00 | 96 | 1002.4 |
| 20260508094506 | 5 | 70 | 0.0 | 0.0 | 0.00 | 2.06 | 0.00 | 97 | 1002.5 |
| 20260508093006 | 5 | 68 | 0.0 | 0.0 | 0.00 | 2.06 | 0.00 | 96 | 1002.4 |
| 20260508091504 | 4 | 68 | 0.0 | 0.0 | 0.00 | 2.06 | 0.00 | 96 | 1002.2 |
| 20260508090128 | 5 | 68 | 0.0 | 0.0 | 0.00 | 2.06 | 0.00 | 96 | 1002.0 |
| 20260508084601 | 5 | 68 | 0.0 | 0.0 | 0.00 | 2.06 | 0.00 | 96 | 1002.2 |
| 20260508083117 | 5 | 69 | 0.0 | 0.0 | 0.00 | 2.06 | 0.00 | 96 | 1002.2 |
| 20260508081556 | 5 | 68 | 0.0 | 0.0 | 0.00 | 2.06 | 0.00 | 96 | 1002.0 |
| 20260508080056 | 5 | 68 | 0.0 | 0.0 | 0.00 | 2.06 | 0.00 | 96 | 1001.9 |
| 20260508074554 | 5 | 66 | 0.0 | 0.0 | 0.00 | 2.06 | 0.00 | 96 | 1001.6 |
| 20260508073054 | 5 | 66 | 0.0 | 0.0 | 0.00 | 2.06 | 0.00 | 95 | 1001.6 |
| 20260508071550 | 6 | 66 | 0.0 | 0.0 | 0.00 | 2.06 | 0.00 | 96 | 1001.8 |
| 20260508070049 | 6 | 66 | 0.0 | 0.0 | 0.00 | 2.06 | 0.00 | 95 | 1001.7 |
| 20260508064555 | 6 | 66 | 0.0 | 0.0 | 0.00 | 2.06 | 0.00 | 95 | 1001.7 |
| 20260508063047 | 6 | 66 | 0.0 | 0.0 | 0.00 | 2.06 | 0.00 | 96 | 1001.8 |
| 20260508061544 | 6 | 67 | 0.0 | 0.0 | 0.00 | 2.06 | 0.00 | 95 | 1001.7 |
| 20260508060042 | 7 | 67 | 0.0 | 0.0 | 0.00 | 2.06 | 0.00 | 96 | 1001.9 |
| 20260508054541 | 7 | 67 | 0.0 | 0.0 | 0.00 | 2.06 | 0.00 | 96 | 1002.0 |
| 20260508053040 | 7 | 66 | 0.0 | 0.0 | 0.00 | 2.06 | 0.00 | 96 | 1001.9 |
| 20260508051537 | 7 | 66 | 0.0 | 0.0 | 0.00 | 2.06 | 0.00 | 95 | 1001.9 |
| 20260508050035 | 7 | 68 | 0.0 | 0.0 | 0.00 | 2.06 | 0.00 | 95 | 1001.8 |
| 20260508044535 | 7 | 70 | 0.0 | 0.0 | 0.00 | 2.06 | 0.00 | 95 | 1001.6 |
| 20260508043033 | 8 | 70 | 0.0 | 0.0 | 0.00 | 2.06 | 0.00 | 95 | 1001.5 |
| 20260508041530 | 8 | 69 | 0.0 | 0.0 | 0.00 | 2.06 | 0.00 | 95 | 1001.7 |
| 20260508040035 | 9 | 70 | 1.6 | 6.4 | 0.00 | 2.06 | 0.00 | 96 | 1001.8 |
| 20260508034529 | 9 | 78 | 3.2 | 9.7 | 0.00 | 2.06 | 0.00 | 95 | 1002.1 |
| 20260508033025 | 9 | 77 | 3.2 | 6.4 | 0.00 | 2.06 | 0.00 | 96 | 1002.2 |
| 20260508031528 | 9 | 64 | 6.4 | 9.7 | 0.00 | 2.06 | 0.00 | 96 | 1002.2 |
| 20260508030018 | 10 | 305 | 0.0 | 0.0 | 0.00 | 2.06 | 0.00 | 96 | 1002.3 |
| 20260508024517 | 10 | 305 | 0.0 | 0.0 | 0.00 | 2.06 | 2.06 | 96 | 1002.3 |
| 20260508023026 | 10 | 305 | 0.0 | 0.0 | 0.00 | 2.06 | 2.06 | 96 | 1002.1 |
| 20260508021517 | 10 | 305 | 0.0 | 6.4 | 0.00 | 2.06 | 2.06 | 96 | 1002.3 |
| 20260508020015 | 10 | 345 | 0.0 | 6.4 | 0.00 | 2.06 | 2.06 | 96 | 1002.3 |
| 20260508014532 | 10 | 297 | 3.2 | 8.0 | 0.00 | 2.06 | 2.06 | 96 | 1002.4 |
| 20260508013014 | 10 | 328 | 1.6 | 11.3 | 0.00 | 2.06 | 2.06 | 96 | 1002.4 |
| 20260508011516 | 10 | 291 | 0.0 | 6.4 | 0.00 | 2.06 | 2.06 | 96 | 1002.3 |
| 20260508010024 | 11 | 80 | 0.0 | 4.8 | 0.00 | 2.06 | 2.06 | 96 | 1002.1 |
| 20260508004520 | 11 | 81 | 0.0 | 4.8 | 0.00 | 2.06 | 2.06 | 96 | 1002.0 |
| 20260508003034 | 11 | 303 | 0.0 | 6.4 | 0.00 | 2.06 | 2.06 | 96 | 1002.1 |
| 20260508001511 | 10 | 231 | 0.0 | 3.2 | 0.00 | 2.06 | 2.06 | 96 | 1002.0 |
| 20260508000011 | 10 | 230 | 1.6 | 3.2 | 0.00 | 2.06 | 2.06 | 96 | 1001.8 |
| 20260507234511 | 10 | 231 | 0.0 | 4.8 | 0.00 | 2.06 | 2.06 | 96 | 1001.8 |
| 20260507233010 | 10 | 231 | 0.0 | 3.2 | 0.00 | 2.06 | 2.06 | 96 | 1002.2 |
| 20260507231510 | 10 | 230 | 0.0 | 4.8 | 0.00 | 2.06 | 2.06 | 96 | 1002.0 |
| 20260507230014 | 10 | 231 | 0.0 | 3.2 | 0.00 | 2.06 | 2.06 | 96 | 1002.2 |
| 20260507224512 | 10 | 231 | 3.2 | 8.0 | 0.00 | 2.06 | 2.06 | 96 | 1002.1 |
| 20260507223008 | 11 | 240 | 3.2 | 8.0 | 0.00 | 2.06 | 2.06 | 96 | 1002.0 |
| 20260507221607 | 11 | 168 | 1.6 | 4.8 | 0.00 | 2.06 | 2.06 | 96 | 1001.9 |
| 20260507220006 | 11 | 166 | 1.6 | 8.0 | 0.00 | 2.06 | 2.06 | 95 | 1002.0 |
| 20260507214505 | 11 | 170 | 6.4 | 11.3 | 0.00 | 2.06 | 2.06 | 95 | 1002.1 |
| 20260507213005 | 11 | 178 | 3.2 | 9.7 | 0.00 | 2.06 | 2.06 | 96 | 1002.2 |
| 20260507211504 | 11 | 168 | 0.0 | 8.0 | 0.00 | 2.06 | 2.06 | 96 | 1003.0 |
| 20260507210003 | 11 | 223 | 6.4 | 17.7 | 0.05 | 2.06 | 2.06 | 95 | 1002.5 |
| 20260507204502 | 11 | 253 | 6.4 | 16.1 | 0.05 | 2.06 | 2.06 | 95 | 1002.1 |
| 20260507203004 | 11 | 183 | 4.8 | 12.9 | 0.10 | 2.06 | 2.06 | 96 | 1001.6 |
| 20260507201612 | 11 | 199 | 4.8 | 14.5 | 0.18 | 2.06 | 2.06 | 95 | 1001.8 |
| 20260507200104 | 11 | 195 | 3.2 | 17.7 | 0.25 | 2.03 | 2.03 | 95 | 1001.8 |
| 20260507194557 | 11 | 171 | 4.8 | 12.9 | 0.43 | 2.01 | 2.01 | 95 | 1002.7 |
| 20260507193053 | 11 | 350 | 3.2 | 14.5 | 0.53 | 1.96 | 1.96 | 96 | 1002.7 |
| 20260507191553 | 11 | 126 | 3.2 | 6.4 | 0.66 | 1.88 | 1.88 | 96 | 1003.3 |
| 20260507190048 | 11 | 213 | 1.6 | 4.8 | 0.71 | 1.75 | 1.75 | 96 | 1004.1 |
| 20260507184547 | 11 | 209 | 3.2 | 12.9 | 0.79 | 1.57 | 1.57 | 96 | 1004.5 |
| 20260507183045 | 11 | 204 | 4.8 | 12.9 | 1.04 | 1.40 | 1.40 | 96 | 1004.6 |
| 20260507181544 | 11 | 170 | 4.8 | 14.5 | 1.14 | 1.22 | 1.22 | 95 | 1004.7 |
| 20260507180046 | 10 | 171 | 3.2 | 14.5 | 0.94 | 0.99 | 0.99 | 95 | 1005.1 |
| 20260507174543 | 10 | 227 | 4.8 | 11.3 | 0.79 | 0.79 | 0.79 | 95 | 1005.7 |
| 20260507173041 | 10 | 211 | 3.2 | 14.5 | 0.33 | 0.33 | 0.33 | 94 | 1005.6 |
| 20260507171541 | 10 | 201 | 6.4 | 25.7 | 0.08 | 0.08 | 0.08 | 94 | 1005.0 |
| 20260507170038 | 10 | 218 | 1.6 | 20.9 | 0.05 | 0.05 | 0.05 | 94 | 1004.9 |
| 20260507164536 | 10 | 191 | 8.0 | 29.0 | 0.00 | 0.00 | 0.00 | 93 | 1005.2 |
| 20260507163033 | 11 | 208 | 9.7 | 19.3 | 0.00 | 0.00 | 0.00 | 92 | 1005.8 |
| 20260507161531 | 11 | 162 | 11.3 | 24.1 | 0.00 | 0.00 | 0.00 | 92 | 1006.2 |
| 20260507160034 | 11 | 195 | 12.9 | 25.7 | 0.00 | 0.00 | 0.00 | 92 | 1006.5 |
| 20260507154529 | 11 | 195 | 6.4 | 25.7 | 0.00 | 0.00 | 0.00 | 92 | 1006.8 |
| 20260507153031 | 11 | 164 | 9.7 | 30.6 | 0.00 | 0.00 | 0.00 | 91 | 1007.0 |